1998-067VJ (56434 NORAD) Tracking and Keplerian Element Data

This shows tracking and keplerian element data for the satellite.

Feedback or suggestion? Click here.




ElementValue
Catalog56434
Name1998-067VJ
Epoch Orbit46
Epoch Day126.60462224
Epoch Year2023
RAAN174.6195
Inclination51.6385
Eccentricity0.0008015
Argument of Perigee315.3341
Mean Anonmoly44.7002
Mean Motion15.50490845
Decay Rate0.00050368
L11 56434U 98067VJ 23126.60462224 .00050368 00000+0 86875-3 0 9990
L22 56434 51.6385 174.6195 0008015 315.3341 44.7002 15.50490845 467



Live tracking and technical data element details for 1998-067VJ (NORAD 56434). 1998-067VJ can be tracked NOW for your location showing map with azimuth and elevation plus other details from your city location.







IsCatalogInMostPopularTable: catalog: 56434, numindb: 41
Update: records affected: 1



GetName: 56434 1998-067VJ

Hit Count: updated at: Wed, 07 Jun 2023 09:02:45 GMT